Meteo pe oră la Abbasanta

Astăzi, 24 Iulie, Sâmbătă

Timp Temperatura Precipitaţii Vânt Presiune Umiditate
00:00 +25°C° 0 mm 1 m/s 732 mmHg 41%
01:00 +25°C° 0 mm 1 m/s 732 mmHg 41%
02:00 +25°C° 0 mm 1 m/s 732 mmHg 41%
03:00 +24°C° 0 mm 2 m/s 731 mmHg 41%
04:00 +24°C° 0 mm 2 m/s 731 mmHg 41%
05:00 +26°C° 0 mm 2 m/s 731 mmHg 38%
06:00 +28°C° 0 mm 2 m/s 731 mmHg 34%
07:00 +29°C° 0 mm 1 m/s 731 mmHg 31%
08:00 +32°C° 0 mm 2 m/s 731 mmHg 27%
09:00 +35°C° 0 mm 2 m/s 731 mmHg 23%
10:00 +38°C° 0 mm 3 m/s 732 mmHg 20%
11:00 +39°C° 0 mm 3 m/s 731 mmHg 18%
12:00 +41°C° 0 mm 4 m/s 731 mmHg 17%
13:00 +42°C° 0 mm 4 m/s 731 mmHg 16%
14:00 +42°C° 0 mm 4 m/s 731 mmHg 16%
15:00 +42°C° 0 mm 4 m/s 731 mmHg 16%
16:00 +41°C° 0 mm 4 m/s 731 mmHg 16%
17:00 +40°C° 0 mm 4 m/s 730 mmHg 18%
18:00 +37°C° 0 mm 4 m/s 730 mmHg 20%
19:00 +36°C° 0 mm 3 m/s 730 mmHg 21%
20:00 +33°C° 0 mm 3 m/s 730 mmHg 24%
21:00 +30°C° 0 mm 3 m/s 730 mmHg 27%
22:00 +28°C° 0 mm 3 m/s 730 mmHg 30%
23:00 +27°C° 0 mm 3 m/s 730 mmHg 30%

Mâine, 25 Iulie, Duminică

Timp Temperatura Precipitaţii Vânt Presiune Umiditate
00:00 +27°C° 0 mm 3 m/s 729 mmHg 30%
01:00 +27°C° 0 mm 3 m/s 729 mmHg 30%
02:00 +27°C° 0 mm 3 m/s 729 mmHg 30%
03:00 +26°C° 0 mm 3 m/s 729 mmHg 30%
04:00 +26°C° 0 mm 3 m/s 729 mmHg 31%
05:00 +27°C° 0 mm 3 m/s 729 mmHg 31%
06:00 +28°C° 0 mm 3 m/s 729 mmHg 31%
07:00 +30°C° 0 mm 3 m/s 730 mmHg 31%
08:00 +34°C° 0 mm 3 m/s 729 mmHg 26%
09:00 +38°C° 0 mm 3 m/s 729 mmHg 20%
10:00 +42°C° 0 mm 3 m/s 728 mmHg 15%
11:00 +42°C° 0 mm 4 m/s 729 mmHg 18%
12:00 +41°C° 0 mm 5 m/s 729 mmHg 20%
13:00 +41°C° 0 mm 6 m/s 729 mmHg 23%
14:00 +41°C° 0 mm 6 m/s 729 mmHg 23%
15:00 +41°C° 0 mm 5 m/s 729 mmHg 23%
16:00 +40°C° 0 mm 5 m/s 729 mmHg 23%
17:00 +37°C° 0 mm 4 m/s 729 mmHg 28%
18:00 +35°C° 0 mm 3 m/s 729 mmHg 33%
19:00 +32°C° 0 mm 2 m/s 729 mmHg 37%
20:00 +31°C° 0 mm 2 m/s 729 mmHg 43%
21:00 +29°C° 0 mm 2 m/s 729 mmHg 48%
22:00 +27°C° 0 mm 2 m/s 729 mmHg 53%
23:00 +27°C° 0 mm 2 m/s 729 mmHg 49%

Poimâine, 26 Iulie, Luni

Timp Temperatura Precipitaţii Vânt Presiune Umiditate
00:00 +27°C° 0 mm 2 m/s 729 mmHg 45%
01:00 +27°C° 0 mm 2 m/s 729 mmHg 41%
02:00 +27°C° 0 mm 2 m/s 729 mmHg 45%
03:00 +26°C° 0 mm 2 m/s 729 mmHg 49%
04:00 +25°C° 0 mm 1 m/s 728 mmHg 53%
05:00 +26°C° 0 mm 1 m/s 729 mmHg 50%
06:00 +28°C° 0 mm 1 m/s 729 mmHg 47%
07:00 +29°C° 0 mm 1 m/s 729 mmHg 44%
08:00 +31°C° 0 mm 2 m/s 729 mmHg 38%
09:00 +35°C° 0 mm 2 m/s 730 mmHg 32%
10:00 +37°C° 0 mm 3 m/s 730 mmHg 25%
11:00 +37°C° 0.1 mm 3 m/s 730 mmHg 26%
12:00 +37°C° 0.1 mm 4 m/s 730 mmHg 28%
13:00 +37°C° 0.1 mm 4 m/s 730 mmHg 29%
14:00 +36°C° 0 mm 5 m/s 731 mmHg 33%
15:00 +35°C° 0 mm 5 m/s 731 mmHg 37%
16:00 +34°C° 0 mm 5 m/s 731 mmHg 41%
17:00 +33°C° 0 mm 4 m/s 731 mmHg 43%
18:00 +31°C° 0 mm 3 m/s 731 mmHg 46%
19:00 +29°C° 0 mm 1 m/s 731 mmHg 49%
20:00 +29°C° 0 mm 2 m/s 731 mmHg 48%
21:00 +28°C° 0 mm 2 m/s 731 mmHg 47%
22:00 +28°C° 0 mm 2 m/s 731 mmHg 46%
23:00 +28°C° 0 mm 2 m/s 731 mmHg 46%

27 Iulie, Marţi

Timp Temperatura Precipitaţii Vânt Presiune Umiditate
00:00 +27°C° 0 mm 2 m/s 731 mmHg 46%
01:00 +27°C° 0 mm 1 m/s 731 mmHg 46%
02:00 +27°C° 0 mm 2 m/s 731 mmHg 46%
03:00 +27°C° 0 mm 2 m/s 731 mmHg 47%
04:00 +27°C° 0 mm 2 m/s 731 mmHg 47%
05:00 +27°C° 0 mm 2 m/s 731 mmHg 47%
06:00 +28°C° 0 mm 1 m/s 731 mmHg 47%
07:00 +28°C° 0 mm 1 m/s 732 mmHg 47%
08:00 +30°C° 0 mm 1 m/s 732 mmHg 42%
09:00 +32°C° 0 mm 2 m/s 732 mmHg 37%
10:00 +35°C° 0 mm 2 m/s 732 mmHg 33%
11:00 +36°C° 0 mm 3 m/s 732 mmHg 31%
12:00 +37°C° 0 mm 3 m/s 732 mmHg 29%
13:00 +38°C° 0 mm 4 m/s 732 mmHg 27%
14:00 +37°C° 0 mm 4 m/s 731 mmHg 28%
15:00 +37°C° 0 mm 4 m/s 731 mmHg 29%
16:00 +37°C° 0 mm 5 m/s 731 mmHg 29%
17:00 +35°C° 0 mm 4 m/s 731 mmHg 33%
18:00 +33°C° 0 mm 3 m/s 731 mmHg 37%
19:00 +31°C° 0 mm 2 m/s 731 mmHg 41%
20:00 +29°C° 0 mm 2 m/s 731 mmHg 46%
21:00 +27°C° 0 mm 1 m/s 732 mmHg 50%
22:00 +25°C° 0 mm 1 m/s 732 mmHg 55%
23:00 +25°C° 0 mm 1 m/s 732 mmHg 55%

28 Iulie, Miercuri

Timp Temperatura Precipitaţii Vânt Presiune Umiditate
00:00 +25°C° 0 mm 1 m/s 732 mmHg 54%
01:00 +25°C° 0 mm 2 m/s 732 mmHg 53%
02:00 +25°C° 0 mm 2 m/s 731 mmHg 54%
03:00 +24°C° 0 mm 2 m/s 731 mmHg 54%
04:00 +24°C° 0 mm 2 m/s 731 mmHg 54%
05:00 +25°C° 0 mm 2 m/s 731 mmHg 50%
06:00 +27°C° 0 mm 2 m/s 731 mmHg 46%
07:00 +28°C° 0 mm 2 m/s 732 mmHg 42%
08:00 +31°C° 0 mm 1 m/s 732 mmHg 37%
09:00 +34°C° 0 mm 1 m/s 732 mmHg 31%
10:00 +36°C° 0 mm 1 m/s 732 mmHg 25%
11:00 +38°C° 0 mm 2 m/s 732 mmHg 24%
12:00 +40°C° 0 mm 4 m/s 732 mmHg 23%
13:00 +41°C° 0 mm 5 m/s 732 mmHg 22%
14:00 +40°C° 0 mm 5 m/s 732 mmHg 22%
15:00 +40°C° 0 mm 5 m/s 732 mmHg 22%
16:00 +39°C° 0 mm 5 m/s 732 mmHg 22%
17:00 +37°C° 0 mm 4 m/s 732 mmHg 25%
18:00 +35°C° 0 mm 3 m/s 732 mmHg 28%
19:00 +34°C° 0 mm 2 m/s 732 mmHg 31%
20:00 +30°C° 0 mm 2 m/s 732 mmHg 37%
21:00 +28°C° 0 mm 2 m/s 732 mmHg 43%
22:00 +26°C° 0 mm 2 m/s 733 mmHg 48%
23:00 +26°C° 0 mm 2 m/s 732 mmHg 50%

29 Iulie, Joi

Timp Temperatura Precipitaţii Vânt Presiune Umiditate
00:00 +26°C° 0 mm 2 m/s 732 mmHg 51%
01:00 +25°C° 0 mm 2 m/s 732 mmHg 53%
02:00 +25°C° 0 mm 2 m/s 732 mmHg 53%
03:00 +25°C° 0 mm 2 m/s 732 mmHg 52%
04:00 +25°C° 0 mm 2 m/s 732 mmHg 52%
05:00 +26°C° 0 mm 2 m/s 732 mmHg 47%
06:00 +28°C° 0 mm 2 m/s 732 mmHg 42%
07:00 +30°C° 0 mm 1 m/s 732 mmHg 36%
08:00 +34°C° 0 mm 2 m/s 732 mmHg 31%
09:00 +36°C° 0 mm 2 m/s 732 mmHg 25%
10:00 +39°C° 0 mm 2 m/s 732 mmHg 20%
11:00 +40°C° 0 mm 2 m/s 732 mmHg 20%
12:00 +40°C° 0 mm 3 m/s 732 mmHg 20%
13:00 +42°C° 0 mm 4 m/s 732 mmHg 20%
14:00 +41°C° 0 mm 4 m/s 732 mmHg 22%
15:00 +40°C° 0 mm 4 m/s 731 mmHg 23%
16:00 +40°C° 0 mm 4 m/s 731 mmHg 24%
17:00 +37°C° 0 mm 3 m/s 731 mmHg 28%
18:00 +35°C° 0 mm 2 m/s 731 mmHg 32%
19:00 +32°C° 0 mm 2 m/s 731 mmHg 37%
20:00 +30°C° 0 mm 1 m/s 731 mmHg 41%
21:00 +28°C° 0 mm 1 m/s 731 mmHg 46%
22:00 +26°C° 0 mm 1 m/s 731 mmHg 51%
23:00 +26°C° 0 mm 1 m/s 731 mmHg 51%
Arată mai mult

Formular de consimțământ

Meteoprog și furnizorii noștri de servicii pot stoca și accesa date personale, precum cookies, identificatori de dispozitiv sau alte tehnologii similare pe dispozitivul dumneavoastră și procesa astfel de date pentru a personaliza conținutul și reclamele, dar și pentru a oferi caracteristici de social media și pentru a analiza traficul.

  • Stocarea și/sau accesarea informațiilor pe dispozitivul dumneavoastră

    Cookies, identificatori de dispozitiv sau alte informații pot fi stocate sau accesate pe dispozitiv în scopurile indicate mai sus.

  • Reclame și conținut personalizat, evaluarea reclamelor și a conținutului, informații despre audiențe și dezvoltarea produselor

    Reclamele și conținutul pot fi personalizate pe baza unui profil. Pot fi adăugate date suplimentare pentru a personaliza mai bine reclamele și conținutul. Performanța reclamelor și conținutului poate fi măsurată. Pot fi obținute informații despre utilizatorii care au văzut reclamele și conținutul. Aceste date pot fi utilizate pentru a dezvolta sau îmbunătăți experiența utilizatorilor, sistemele și software-ul.

Dând clic pe ‘Sunt de acord’, permiteți utilizarea cookie-urilor menționate, a identificatorilor de dispozitiv, balizelor web sau altor tehnologii similare. Setările pot fi modificate din browser-ul dispozitivului dumneavoastră.

În anumite scopuri, interesele legitime pot prima asupra consimțământului. Puteți citi mai multe informații în acest sens în Politica privind Confidențialitatea Datelor și Cookie.